Home > Weather > Kassala > Past weeks

Flag for Sudan Weather for the Past 2 Weeks in Kassala, Sudan

Now
91 °F

Sunny.


Feels Like: 87 °F
Forecast: 69 / 99 °F
Wind: 14 mph from Northwest

Location: Khartoum Airport

Current Time: Feb 14, 2016 at 4:39:33 PM

Latest Report: Feb 14, 2016 at 4:00 PM


Visibility: 10 mi

Pressure: 29.83 "Hg (28.19 "Hg at 506m altitude)

Humidity: 14%

Dew point: 36 °F

Location of KassalaLocation

Historic Weather in Kassala — Graph

°F

Kassala Temperature Yesterday

Maximum temperature yesterday: 91 °F (at 4:00 PM)
Minimum temperature yesterday: 61 °F (at 5:00 AM)
Average temperature yesterday: 75 °F

High & Low Weather Summary for the Past Weeks

 TemperatureHumidityPressure
High91 °F (Feb 13, 4:00 PM)62% (Feb 14, 8:00 AM)30.09 "Hg (Feb 14, 8:00 AM)
Low50 °F (Feb 14, 8:00 AM)7% (Feb 10, 3:00 PM)29.83 "Hg (Feb 13, 4:00 PM)
Average73 °F20%29.99 "Hg
* Reported Jan 30 3:00 PM — Feb 14 3:00 PM, Kassala, Weather by CustomWeather, © 2016

Note: Actual official high and low records may vary slightly from our data, if they occured in-between our weather recording intervals... More about our weather records

Advertising

Kassala Weather History for the Previous 24 Hours

 ConditionsComfort  
Time TempWeatherWind HumidityBarometerVisibility
3:00 PM
Sun, Feb 14
90 °FSunny.7 mph17%29.89 "Hg10 mi
2:00 PM90 °FSunny.12 mph21%29.92 "Hg10 mi
1:00 PM88 °FSunny.13 mph24%29.95 "Hg10 mi
12:00 PM86 °FSunny.17 mph27%29.98 "Hg10 mi
11:00 AM81 °FSunny.15 mph32%30.01 "Hg10 mi
10:00 AM75 °FSunny.14 mph29%30.01 "Hg10 mi
9:00 AM72 °FSunny.14 mph29%29.98 "Hg10 mi
8:00 AM50 °FSunny.15 mph62%29.95 "Hg10 mi
7:00 AM66 °FClear.10 mph32%29.92 "Hg10 mi
6:00 AM66 °FClear.10 mph32%29.89 "Hg10 mi
5:00 AM68 °FClear.10 mph26%29.89 "Hg10 mi
4:00 AM68 °FClear.10 mph26%29.86 "Hg10 mi
3:00 AM70 °FClear.7 mph25%29.92 "Hg10 mi
2:00 AM72 °FClear.7 mph19%29.92 "Hg10 mi
1:00 AM72 °FClear.7 mph25%29.92 "Hg10 mi
12:00 AM72 °FClear.7 mph27%29.92 "Hg10 mi
11:00 PM
Sat, Feb 13
73 °FClear.7 mph25%29.92 "Hg10 mi
10:00 PM77 °FClear.6 mph24%29.92 "Hg10 mi
9:00 PM81 °FClear.8 mph20%29.89 "Hg10 mi
8:00 PM82 °FClear.8 mph21%29.89 "Hg10 mi
7:00 PM86 °FClear.9 mph18%29.86 "Hg10 mi
6:00 PM88 °FSunny.14 mph15%29.86 "Hg10 mi
5:00 PM90 °FSunny.16 mph17%29.83 "Hg10 mi
4:00 PM91 °FSunny.7 mph23%29.83 "Hg10 mi
Weather by CustomWeather, © 2016

See weather overviewHow to use our weather pages